#timestamp,LO_Frequency,Hit 
1500868815.7,286047003.7,N
1500868835.6,286047007.4,N
1500868855.4,286047007.6,N
1500868875.2,286047003.3,N
1500868895.0,286047005.9,N
1500868896.0,286047005.9,N
1500868915.8,286047003.2,N
1500868935.6,286047005.5,N
1500868955.4,286047003.4,N
1500868975.3,286047003.0,N
1500868995.1,286047004.5,Y
1500869015.8,286046998.3,N
1500869035.7,286046999.2,N
1500869055.5,286046995.4,N
1500869075.3,286046997.7,N
1500869095.2,286046999.3,N
1500869115.9,286047000.0,N
1500869135.7,286046998.7,N
1500869155.6,286046998.3,N
1500869175.4,286046998.9,N
1500869195.2,286046998.5,N
1500869215.1,286046999.1,N
1500869216.0,286046999.1,N
1500869235.8,286046998.1,N
1500869255.6,286046999.1,N
1500869275.4,286046999.5,N
1500869295.3,286046995.6,N
1500869315.1,286046995.2,N
1500869335.8,286046999.8,N
1500869355.7,286047000.3,N
1500869375.7,286047000.3,N
1500869395.5,286047002.4,N
1500869415.3,286046999.9,N
1500869435.1,286046998.5,N
1500869455.9,286046998.3,N
1500869475.7,286046996.9,N
1500869495.2,286046998.7,N
1500869515.0,286047001.0,N
1500869515.9,286047001.0,N
1500869535.8,286047002.6,N
1500869555.6,286047002.2,N
1500869575.4,286047002.7,N
1500869595.2,286047002.6,N
1500869615.1,286047002.7,N
1500869616.0,286047002.7,N
1500869635.8,286047000.2,N
1500869655.6,286046998.6,N
1500869675.5,286047000.8,N
1500869695.3,286046998.5,N
1500869715.1,286046998.6,N
1500869735.9,286047000.9,N
1500869755.7,286046998.8,N
1500869775.5,286046998.5,N
1500869795.8,286046999.4,N
1500869815.6,286046996.5,N
1500869835.5,286046997.4,N
1500869855.3,286046996.9,N
1500869875.1,286046996.9,N
1500869895.9,286046997.1,N
1500869915.7,286046996.7,N
1500869935.5,286047002.3,N
1500869955.4,286047002.1,N
1500869975.2,286046999.7,N
1500869995.0,286046998.8,N
1500869995.9,286046998.8,N
1500870015.8,286046996.8,N
1500870035.6,286046997.3,N
1500870055.4,286046996.2,N
1500870075.2,286046995.9,N
1500870095.1,286046993.9,N
1500870096.0,286046993.9,N
1500870115.8,286046992.5,Y
1500870135.7,286046995.0,N
1500870155.5,286046994.9,N
1500870175.3,286046990.1,Y
1500870195.2,286046997.6,N
1500870215.9,286046999.3,N
1500870235.7,286046998.2,N
1500870255.5,286046999.2,N
1500870275.4,286046998.2,N
1500870295.2,286046998.1,N
1500870315.0,286046999.4,N
1500870315.9,286046999.4,N
1500870335.8,286046998.6,N
1500870355.6,286047001.2,N
1500870375.4,286046996.9,N
1500870395.3,286046996.8,N
1500870415.1,286046997.5,N
1500870416.0,286046997.5,N
1500870435.8,286047000.8,N
1500870455.7,286046998.4,N
1500870475.5,286046997.7,N
1500870495.3,286046997.2,N
1500870515.1,286046999.8,N
1500870535.9,286046999.9,N
1500870555.7,286046999.1,N
1500870575.5,286047004.2,N
1500870595.4,286047004.7,N
1500870615.2,286047004.8,N
1500870635.0,286047006.3,N
1500870635.9,286047006.3,N
1500870655.8,286047008.8,N
1500870675.6,286047010.8,N
1500870695.4,286047010.3,N
1500870715.3,286047009.0,N
1500870735.1,286047004.7,N
1500870736.0,286047004.7,N
1500870755.8,286047007.6,N
1500870775.7,286047006.0,N
1500870795.5,286047004.0,N
1500870815.3,286047002.5,N
1500870835.1,286047001.0,N
1500870855.9,286047000.6,N
1500870875.7,286047001.7,N
1500870895.5,286047001.6,N
1500870915.4,286047004.3,N
1500870935.2,286046999.7,N
1500870955.0,286046999.0,N
1500870955.9,286046999.0,N
1500870975.8,286046996.5,N
1500870995.6,286046999.1,N
1500871015.4,286046998.3,N
1500871035.3,286046998.4,N
1500871055.1,286047000.7,N
1500871056.0,286047000.7,N
1500871075.8,286047001.2,N
1500871095.7,286047000.3,N
1500871115.5,286046998.7,N
1500871135.3,286046998.5,N
1500871155.1,286046997.2,N
1500871175.9,286046994.9,N
1500871195.7,286046995.0,N
1500871215.5,286046993.9,N
1500871235.4,286046996.0,N
1500871255.2,286046995.7,N
1500871275.0,286046997.0,N
1500871275.9,286046997.0,N
1500871295.8,286046998.5,N
1500871315.6,286046999.2,N
1500871335.4,286046995.7,N
1500871355.3,286046999.2,N
1500871375.1,286047000.8,N
1500871376.0,286047000.8,N
1500871395.8,286046996.7,N
1500871415.8,286046996.2,N
1500871435.6,286046995.3,N
1500871455.4,286046995.2,N
1500871475.2,286046997.0,N
1500871495.1,286046999.0,N
1500871496.0,286046999.0,N
1500871515.8,28601500871535.8,286046996.7,Y
1500871555.6,286046999.1,N
1500871575.6,286046998.2,N
1500871595.5,286046998.4,N
1500871615.3,286046997.5,N
1500871635.1,286046997.0,Y
1500871655.9,286047002.8,N
1500871675.7,286047000.2,N
1500871695.5,286047000.8,N
1500871715.4,286047000.0,N
1500871735.2,286047002.0,N
1500871755.0,286047004.0,N
1500871755.9,286047004.0,N
1500871775.8,286047001.3,N
1500871795.6,286047005.8,N
1500871815.4,286047005.4,N
1500871835.3,286047006.4,Y
1500871855.1,286047004.3,N
1500871856.0,286047004.3,N
1500871875.8,286047003.7,N
1500871895.6,286047002.1,N
1500871915.5,286047000.2,N
1500871935.3,286047000.1,N
1500871955.2,286047003.9,N
1500871975.9,286047003.5,N
1500871995.7,286047001.8,N
1500872015.6,286047000.8,N
1500872035.4,286046999.2,N
1500872055.2,286046999.2,N
1500872075.0,286046996.7,N
1500872076.0,286046996.7,N
1500872095.8,286046997.1,N
1500872115.6,286046996.1,N
1500872135.4,286046998.0,N
1500872155.3,286046998.0,N
1500872175.1,286046995.8,N
1500872195.8,286046996.2,N
1500872215.7,286046995.1,Y
1500872235.5,286047000.8,N
1500872255.3,286046999.9,N
1500872275.2,286047001.7,N
1500872295.9,286047005.6,N
1500872315.7,286047005.8,N
1500872335.6,286047004.1,N
1500872355.4,286047003.1,N
1500872375.2,286047001.7,N
1500872395.0,286047000.0,N
1500872396.0,286047000.0,N
